Time,TemperatureF,DewpointF,PressureIn,WindDirection,WindDirectionDegrees,WindSpeedMPH,WindSpeedGustMPH,Humidity,HourlyPrecipIn,Conditions,Clouds,dailyrainin,SoftwareType,DateUTC
2013-04-10 00:04:00,69.2,57.7,29.85,ESE,113,0.0,0.0,67,0.00,,,0.00,WUHU216HW,2013-04-10 04:04:00,
2013-04-10 00:09:00,69.0,58.0,29.85,ESE,113,0.0,0.0,68,0.00,,,0.00,WUHU216HW,2013-04-10 04:09:00,
2013-04-10 00:14:00,68.7,57.8,29.84,ESE,113,0.0,0.0,68,0.00,,,0.00,WUHU216HW,2013-04-10 04:14:00,
2013-04-10 00:19:00,68.5,57.5,29.85,ESE,113,0.0,0.0,68,0.00,,,0.00,WUHU216HW,2013-04-10 04:19:00,
2013-04-10 00:24:00,68.3,57.8,29.84,ESE,113,0.0,0.0,69,0.00,,,0.00,WUHU216HW,2013-04-10 04:24:00,
2013-04-10 00:29:00,68.1,57.6,29.85,ESE,113,0.0,0.0,69,0.00,,,0.00,WUHU216HW,2013-04-10 04:29:00,
2013-04-10 00:34:00,67.8,57.3,29.84,SSW,203,0.0,0.0,69,0.00,,,0.00,WUHU216HW,2013-04-10 04:34:00,
2013-04-10 00:39:00,67.8,57.3,29.84,ESE,113,0.0,0.0,69,0.00,,,0.00,WUHU216HW,2013-04-10 04:39:00,
2013-04-10 00:44:00,67.6,57.1,29.84,ESE,113,0.0,0.0,69,0.00,,,0.00,WUHU216HW,2013-04-10 04:44:00,
2013-04-10 00:49:00,67.2,57.2,29.84,ESE,113,0.0,0.0,70,0.00,,,0.00,WUHU216HW,2013-04-10 04:49:00,
2013-04-10 00:54:00,67.2,57.2,29.84,ESE,113,0.0,0.0,70,0.00,,,0.00,WUHU216HW,2013-04-10 04:54:00,
2013-04-10 00:59:00,67.1,57.0,29.84,ESE,113,0.0,0.0,70,0.00,,,0.00,WUHU216HW,2013-04-10 04:59:00,
2013-04-10 01:04:00,66.9,56.8,29.83,ESE,113,0.0,0.0,70,0.00,,,0.00,WUHU216HW,2013-04-10 05:04:00,
2013-04-10 01:09:00,66.7,56.6,29.84,ESE,113,0.0,0.0,70,0.00,,,0.00,WUHU216HW,2013-04-10 05:09:00,
2013-04-10 01:14:00,66.3,56.8,29.84,ESE,113,0.0,0.0,71,0.00,,,0.00,WUHU216HW,2013-04-10 05:14:00,
2013-04-10 01:19:00,66.3,56.6,29.84,ESE,113,0.0,0.0,71,0.00,,,0.00,WUHU216HW,2013-04-10 05:19:00,
2013-04-10 01:24:00,66.0,56.3,29.84,ESE,113,0.0,0.0,71,0.00,,,0.00,WUHU216HW,2013-04-10 05:24:00,
2013-04-10 01:29:00,66.0,56.3,29.83,ESE,113,0.0,0.0,71,0.00,,,0.00,WUHU216HW,2013-04-10 05:29:00,
2013-04-10 01:34:00,65.8,56.1,29.83,ESE,113,0.0,0.0,71,0.00,,,0.00,WUHU216HW,2013-04-10 05:34:00,
2013-04-10 01:39:00,65.6,56.3,29.83,ESE,113,0.0,0.0,72,0.00,,,0.00,WUHU216HW,2013-04-10 05:39:00,
2013-04-10 01:44:00,65.4,56.2,29.83,ESE,113,0.0,0.0,72,0.00,,,0.00,WUHU216HW,2013-04-10 05:44:00,
2013-04-10 01:49:00,65.3,56.0,29.83,ESE,113,0.0,0.0,72,0.00,,,0.00,WUHU216HW,2013-04-10 05:49:00,
2013-04-10 01:54:00,65.1,55.8,29.83,ESE,113,0.0,0.0,72,0.00,,,0.00,WUHU216HW,2013-04-10 05:54:00,
2013-04-10 01:59:00,64.9,55.7,29.83,ESE,113,0.0,0.0,72,0.00,,,0.00,WUHU216HW,2013-04-10 05:59:00,
2013-04-10 02:04:00,64.9,56.0,29.83,ESE,113,0.0,0.0,73,0.00,,,0.00,WUHU216HW,2013-04-10 06:04:00,
2013-04-10 02:09:00,64.9,56.0,29.83,ESE,113,0.0,0.0,73,0.00,,,0.00,WUHU216HW,2013-04-10 06:09:00,
2013-04-10 02:14:00,64.7,55.9,29.83,ESE,113,0.0,0.0,73,0.00,,,0.00,WUHU216HW,2013-04-10 06:14:00,
2013-04-10 02:19:00,64.7,55.9,29.83,ESE,113,0.0,0.0,73,0.00,,,0.00,WUHU216HW,2013-04-10 06:19:00,
2013-04-10 02:25:00,64.7,55.9,29.82,ESE,113,0.0,0.0,73,0.00,,,0.00,WUHU216HW,2013-04-10 06:25:00,
2013-04-10 02:30:00,64.5,55.7,29.83,ESE,113,0.0,0.0,73,0.00,,,0.00,WUHU216HW,2013-04-10 06:30:00,
2013-04-10 02:35:00,64.5,55.7,29.82,ESE,113,0.0,0.0,73,0.00,,,0.00,WUHU216HW,2013-04-10 06:35:00,
2013-04-10 02:40:00,64.4,55.5,29.82,ESE,113,0.0,0.0,73,0.00,,,0.00,WUHU216HW,2013-04-10 06:40:00,
2013-04-10 02:45:00,64.2,55.7,29.82,ESE,113,0.0,0.0,74,0.00,,,0.00,WUHU216HW,2013-04-10 06:45:00,
2013-04-10 02:50:00,64.2,55.7,29.81,ESE,113,0.0,0.0,74,0.00,,,0.00,WUHU216HW,2013-04-10 06:50:00,
2013-04-10 02:55:00,64.2,55.7,29.82,ESE,113,0.0,0.0,74,0.00,,,0.00,WUHU216HW,2013-04-10 06:55:00,
2013-04-10 03:00:00,64.2,56.1,29.82,ESE,113,0.0,0.0,75,0.00,,,0.00,WUHU216HW,2013-04-10 07:00:00,
2013-04-10 03:05:00,64.2,56.1,29.81,ESE,113,0.0,0.0,75,0.00,,,0.00,WUHU216HW,2013-04-10 07:05:00,
2013-04-10 03:10:00,64.2,56.1,29.81,ESE,113,0.0,0.0,75,0.00,,,0.00,WUHU216HW,2013-04-10 07:10:00,
2013-04-10 03:15:00,64.2,56.1,29.81,ESE,113,0.0,0.0,75,0.00,,,0.00,WUHU216HW,2013-04-10 07:15:00,
2013-04-10 03:20:00,64.0,56.3,29.81,ESE,113,0.0,0.0,76,0.00,,,0.00,WUHU216HW,2013-04-10 07:20:00,
2013-04-10 03:25:00,64.0,56.3,29.81,ESE,113,0.0,0.0,76,0.00,,,0.00,WUHU216HW,2013-04-10 07:25:00,
2013-04-10 03:30:00,64.0,56.3,29.81,ESE,113,0.0,0.0,76,0.00,,,0.00,WUHU216HW,2013-04-10 07:30:00,
2013-04-10 03:35:00,64.0,56.3,29.81,ESE,113,0.0,0.0,76,0.00,,,0.00,WUHU216HW,2013-04-10 07:35:00,
2013-04-10 03:40:00,64.0,56.3,29.81,ESE,113,0.0,0.0,76,0.00,,,0.00,WUHU216HW,2013-04-10 07:40:00,
2013-04-10 03:45:00,64.0,56.3,29.81,ESE,113,0.0,0.0,76,0.00,,,0.00,WUHU216HW,2013-04-10 07:45:00,
2013-04-10 03:50:00,64.0,56.3,29.81,ESE,113,0.0,0.0,76,0.00,,,0.00,WUHU216HW,2013-04-10 07:50:00,
2013-04-10 03:55:00,64.0,56.3,29.82,ESE,113,0.0,0.0,76,0.00,,,0.00,WUHU216HW,2013-04-10 07:55:00,
2013-04-10 04:00:00,63.8,56.1,29.82,ESE,113,0.0,0.0,76,0.00,,,0.00,WUHU216HW,2013-04-10 08:00:00,
2013-04-10 04:05:00,63.6,55.9,29.81,ESE,113,0.0,0.0,76,0.00,,,0.00,WUHU216HW,2013-04-10 08:05:00,
2013-04-10 04:10:00,63.6,55.9,29.81,ESE,113,0.0,0.0,76,0.00,,,0.00,WUHU216HW,2013-04-10 08:10:00,
2013-04-10 04:15:00,63.6,55.9,29.81,ESE,113,0.0,0.0,76,0.00,,,0.00,WUHU216HW,2013-04-10 08:15:00,
2013-04-10 04:20:00,63.6,55.9,29.81,ESE,113,0.0,0.0,76,0.00,,,0.00,WUHU216HW,2013-04-10 08:20:00,
2013-04-10 04:25:00,63.6,56.3,29.81,ESE,113,0.0,0.0,77,0.00,,,0.00,WUHU216HW,2013-04-10 08:25:00,
2013-04-10 04:30:00,63.5,56.3,29.82,ESE,113,0.0,0.0,77,0.00,,,0.00,WUHU216HW,2013-04-10 08:30:00,
2013-04-10 04:35:00,63.5,56.1,29.82,ESE,113,0.0,0.0,77,0.00,,,0.00,WUHU216HW,2013-04-10 08:35:00,
2013-04-10 04:40:00,63.5,56.1,29.82,ESE,113,0.0,0.0,77,0.00,,,0.00,WUHU216HW,2013-04-10 08:40:00,
2013-04-10 04:45:00,63.3,55.9,29.81,ESE,113,0.0,0.0,77,0.00,,,0.00,WUHU216HW,2013-04-10 08:45:00,
2013-04-10 04:50:00,63.3,56.3,29.81,ESE,113,0.0,0.0,78,0.00,,,0.00,WUHU216HW,2013-04-10 08:50:00,
2013-04-10 04:55:00,63.3,56.3,29.81,ESE,113,0.0,0.0,78,0.00,,,0.00,WUHU216HW,2013-04-10 08:55:00,
2013-04-10 05:00:00,63.1,56.1,29.81,ESE,113,0.0,0.0,78,0.00,,,0.00,WUHU216HW,2013-04-10 09:00:00,
2013-04-10 05:05:00,63.1,56.1,29.81,ESE,113,0.0,0.0,78,0.00,,,0.00,WUHU216HW,2013-04-10 09:05:00,
2013-04-10 05:10:00,63.1,56.1,29.81,ESE,113,0.0,0.0,78,0.00,,,0.00,WUHU216HW,2013-04-10 09:10:00,
2013-04-10 05:15:00,62.9,55.9,29.81,ESE,113,0.0,0.0,78,0.00,,,0.00,WUHU216HW,2013-04-10 09:15:00,
2013-04-10 05:20:00,62.7,55.7,29.82,ESE,113,0.0,0.0,78,0.00,,,0.00,WUHU216HW,2013-04-10 09:20:00,
2013-04-10 05:25:00,62.7,55.7,29.81,ESE,113,0.0,0.0,78,0.00,,,0.00,WUHU216HW,2013-04-10 09:25:00,
2013-04-10 05:30:00,62.4,55.4,29.82,ESE,113,0.0,0.0,78,0.00,,,0.00,WUHU216HW,2013-04-10 09:30:00,
2013-04-10 05:35:00,62.4,55.4,29.81,ESE,113,0.0,0.0,78,0.00,,,0.00,WUHU216HW,2013-04-10 09:35:00,
2013-04-10 05:40:00,62.4,55.7,29.81,ESE,113,0.0,0.0,79,0.00,,,0.00,WUHU216HW,2013-04-10 09:40:00,
2013-04-10 05:45:00,62.4,55.7,29.81,East,90,0.0,0.0,79,0.00,,,0.00,WUHU216HW,2013-04-10 09:45:00,
2013-04-10 05:50:00,62.4,55.7,29.81,East,90,0.0,0.0,79,0.00,,,0.00,WUHU216HW,2013-04-10 09:50:00,
2013-04-10 05:55:00,62.4,56.1,29.81,South,180,0.0,0.0,80,0.00,,,0.00,WUHU216HW,2013-04-10 09:55:00,
2013-04-10 06:00:00,62.6,56.3,29.81,ESE,113,0.0,0.0,80,0.00,,,0.00,WUHU216HW,2013-04-10 10:00:00,
2013-04-10 06:05:00,62.7,56.4,29.81,ESE,113,2.9,2.9,80,0.00,,,0.00,WUHU216HW,2013-04-10 10:05:00,
2013-04-10 06:10:00,62.7,56.4,29.81,ENE,68,0.0,2.9,80,0.00,,,0.00,WUHU216HW,2013-04-10 10:10:00,
2013-04-10 06:15:00,63.1,56.8,29.80,ESE,113,0.0,2.9,80,0.00,,,0.00,WUHU216HW,2013-04-10 10:15:00,
2013-04-10 06:20:00,63.3,57.3,29.80,SSE,158,0.0,0.0,81,0.00,,,0.00,WUHU216HW,2013-04-10 10:20:00,
2013-04-10 06:25:00,63.5,57.5,29.80,ESE,113,0.0,2.2,81,0.00,,,0.00,WUHU216HW,2013-04-10 10:25:00,
2013-04-10 06:30:00,63.8,57.9,29.80,SE,135,0.0,2.2,81,0.00,,,0.00,WUHU216HW,2013-04-10 10:30:00,
2013-04-10 06:35:00,64.2,58.2,29.81,SE,135,0.0,0.0,81,0.00,,,0.00,WUHU216HW,2013-04-10 10:35:00,
2013-04-10 06:40:00,64.5,58.6,29.81,WNW,293,0.0,2.2,81,0.00,,,0.00,WUHU216HW,2013-04-10 10:40:00,
2013-04-10 06:45:00,65.1,59.1,29.80,SE,135,0.0,2.6,81,0.00,,,0.00,WUHU216HW,2013-04-10 10:45:00,
2013-04-10 06:50:00,65.4,59.5,29.81,NNE,23,0.0,2.6,81,0.00,,,0.00,WUHU216HW,2013-04-10 10:50:00,
2013-04-10 06:55:00,65.8,59.5,29.81,ENE,68,0.0,4.0,80,0.00,,,0.00,WUHU216HW,2013-04-10 10:55:00,
2013-04-10 07:00:00,66.0,59.7,29.81,SSE,158,0.0,4.0,80,0.00,,,0.00,WUHU216HW,2013-04-10 11:00:00,
2013-04-10 07:05:00,66.3,60.0,29.81,ENE,68,6.2,6.2,80,0.00,,,0.00,WUHU216HW,2013-04-10 11:05:00,
2013-04-10 07:10:00,66.5,60.2,29.81,South,180,3.5,6.2,80,0.00,,,0.00,WUHU216HW,2013-04-10 11:10:00,
2013-04-10 07:15:00,67.2,60.9,29.81,NNE,23,0.0,6.2,80,0.00,,,0.00,WUHU216HW,2013-04-10 11:15:00,
2013-04-10 07:20:00,67.4,60.7,29.80,ESE,113,0.0,3.1,79,0.00,,,0.00,WUHU216HW,2013-04-10 11:20:00,
2013-04-10 07:25:00,67.8,61.1,29.80,SSE,158,1.7,3.8,79,0.00,,,0.00,WUHU216HW,2013-04-10 11:25:00,
2013-04-10 07:30:00,68.1,61.4,29.80,ESE,113,0.0,6.0,79,0.00,,,0.00,WUHU216HW,2013-04-10 11:30:00,
2013-04-10 07:35:00,68.1,61.1,29.80,South,180,5.3,6.0,78,0.00,,,0.00,WUHU216HW,2013-04-10 11:35:00,
2013-04-10 07:40:00,68.3,61.2,29.80,SSW,203,0.0,5.3,78,0.00,,,0.00,WUHU216HW,2013-04-10 11:40:00,
2013-04-10 07:45:00,68.5,61.4,29.81,SSE,158,10.5,10.5,78,0.00,,,0.00,WUHU216HW,2013-04-10 11:45:00,
2013-04-10 07:50:00,68.5,61.0,29.80,NE,45,0.0,10.5,77,0.00,,,0.00,WUHU216HW,2013-04-10 11:50:00,
2013-04-10 07:55:00,68.5,61.0,29.80,ESE,113,0.0,10.5,77,0.00,,,0.00,WUHU216HW,2013-04-10 11:55:00,
2013-04-10 08:00:00,68.7,61.2,29.81,SSW,203,2.0,3.5,77,0.00,,,0.00,WUHU216HW,2013-04-10 12:00:00,
2013-04-10 08:05:00,68.7,61.2,29.81,NW,315,3.1,3.5,77,0.00,,,0.00,WUHU216HW,2013-04-10 12:05:00,
2013-04-10 08:10:00,68.7,61.2,29.82,ESE,113,0.0,3.1,77,0.00,,,0.00,WUHU216HW,2013-04-10 12:10:00,
2013-04-10 08:15:00,68.7,61.2,29.82,SSE,158,0.0,3.1,77,0.00,,,0.00,WUHU216HW,2013-04-10 12:15:00,
2013-04-10 08:20:00,68.9,61.3,29.82,West,270,6.7,6.7,77,0.00,,,0.00,WUHU216HW,2013-04-10 12:20:00,
2013-04-10 08:25:00,69.0,61.5,29.82,SE,135,3.8,6.7,77,0.00,,,0.00,WUHU216HW,2013-04-10 12:25:00,
2013-04-10 08:30:00,69.0,61.5,29.83,WNW,293,5.8,6.7,77,0.00,,,0.00,WUHU216HW,2013-04-10 12:30:00,
2013-04-10 08:35:00,69.2,61.7,29.82,SSE,158,0.0,5.8,77,0.00,,,0.00,WUHU216HW,2013-04-10 12:35:00,
2013-04-10 08:40:00,69.4,61.8,29.83,West,270,0.0,5.8,77,0.00,,,0.00,WUHU216HW,2013-04-10 12:40:00,
2013-04-10 08:45:00,69.4,61.8,29.83,WSW,248,0.0,7.8,77,0.00,,,0.00,WUHU216HW,2013-04-10 12:45:00,
2013-04-10 08:50:00,69.6,62.0,29.83,SW,225,1.1,7.8,77,0.00,,,0.00,WUHU216HW,2013-04-10 12:50:00,
2013-04-10 08:55:00,69.6,62.0,29.83,SE,135,0.0,1.1,77,0.00,,,0.00,WUHU216HW,2013-04-10 12:55:00,
2013-04-10 09:00:00,69.6,62.0,29.83,South,180,0.0,8.9,77,0.00,,,0.00,WUHU216HW,2013-04-10 13:00:00,
2013-04-10 09:05:00,69.9,62.3,29.83,SW,225,1.5,8.9,77,0.00,,,0.00,WUHU216HW,2013-04-10 13:05:00,
2013-04-10 09:10:00,69.9,61.9,29.83,ESE,113,3.8,3.8,76,0.00,,,0.00,WUHU216HW,2013-04-10 13:10:00,
2013-04-10 09:15:00,70.1,62.1,29.83,West,270,0.0,4.2,76,0.00,,,0.00,WUHU216HW,2013-04-10 13:15:00,
2013-04-10 09:20:00,70.1,62.1,29.83,South,180,0.0,4.2,76,0.00,,,0.00,WUHU216HW,2013-04-10 13:20:00,
2013-04-10 09:25:00,70.3,62.3,29.83,West,270,3.5,10.0,76,0.00,,,0.00,WUHU216HW,2013-04-10 13:25:00,
2013-04-10 09:30:00,70.5,62.5,29.83,SSE,158,0.0,10.0,76,0.00,,,0.00,WUHU216HW,2013-04-10 13:30:00,
2013-04-10 09:35:00,70.5,62.5,29.83,SSW,203,9.6,9.6,76,0.00,,,0.00,WUHU216HW,2013-04-10 13:35:00,
2013-04-10 09:40:00,70.7,62.7,29.83,NE,45,0.0,9.6,76,0.00,,,0.00,WUHU216HW,2013-04-10 13:40:00,
2013-04-10 09:45:00,70.8,62.8,29.83,ESE,113,0.0,9.3,76,0.00,,,0.00,WUHU216HW,2013-04-10 13:45:00,
2013-04-10 09:50:00,71.0,63.0,29.83,SE,135,0.0,9.3,76,0.00,,,0.00,WUHU216HW,2013-04-10 13:50:00,
2013-04-10 09:55:00,71.2,63.2,29.82,ESE,113,7.1,7.1,76,0.00,,,0.00,WUHU216HW,2013-04-10 13:55:00,
2013-04-10 10:00:00,71.2,63.2,29.81,ESE,113,8.5,8.5,76,0.00,,,0.00,WUHU216HW,2013-04-10 14:00:00,
2013-04-10 10:05:00,71.4,63.4,29.83,SW,225,2.4,8.5,76,0.00,,,0.00,WUHU216HW,2013-04-10 14:05:00,
2013-04-10 10:10:00,71.4,63.4,29.83,SSW,203,5.3,12.0,76,0.00,,,0.00,WUHU216HW,2013-04-10 14:10:00,
2013-04-10 10:15:00,71.4,63.0,29.83,South,180,5.3,12.0,75,0.00,,,0.00,WUHU216HW,2013-04-10 14:15:00,
2013-04-10 10:20:00,71.6,63.2,29.83,NW,315,4.9,6.4,75,0.00,,,0.00,WUHU216HW,2013-04-10 14:20:00,
2013-04-10 10:25:00,71.7,63.4,29.83,SW,225,0.0,4.9,75,0.00,,,0.00,WUHU216HW,2013-04-10 14:25:00,
2013-04-10 10:30:00,71.9,63.5,29.82,SE,135,0.0,4.9,75,0.00,,,0.00,WUHU216HW,2013-04-10 14:30:00,
2013-04-10 10:35:00,72.1,63.7,29.82,SSW,203,7.1,7.1,75,0.00,,,0.00,WUHU216HW,2013-04-10 14:35:00,
2013-04-10 10:40:00,72.5,64.1,29.81,ENE,68,1.3,7.1,75,0.00,,,0.00,WUHU216HW,2013-04-10 14:40:00,
2013-04-10 10:45:00,72.8,64.1,29.81,ESE,113,5.1,6.4,74,0.00,,,0.00,WUHU216HW,2013-04-10 14:45:00,
2013-04-10 10:50:00,73.2,64.4,29.81,SSW,203,2.0,6.7,74,0.00,,,0.00,WUHU216HW,2013-04-10 14:50:00,
2013-04-10 10:55:00,73.7,64.5,29.81,ESE,113,9.1,9.1,73,0.00,,,0.00,WUHU216HW,2013-04-10 14:55:00,
2013-04-10 11:00:00,74.1,64.9,29.81,NW,315,6.9,9.1,73,0.00,,,0.00,WUHU216HW,2013-04-10 15:00:00,
2013-04-10 11:05:00,74.4,64.7,29.81,South,180,5.5,9.1,73,0.00,,,0.00,WUHU216HW,2013-04-10 15:05:00,
2013-04-10 11:10:00,74.8,65.2,29.82,NW,315,4.9,6.0,72,0.00,,,0.00,WUHU216HW,2013-04-10 15:10:00,
2013-04-10 11:15:00,75.0,64.9,29.81,SSE,158,11.8,11.8,71,0.00,,,0.00,WUHU216HW,2013-04-10 15:15:00,
2013-04-10 11:20:00,75.3,65.3,29.82,SSW,203,1.7,14.5,71,0.00,,,0.00,WUHU216HW,2013-04-10 15:20:00,
2013-04-10 11:25:00,75.3,64.9,29.82,SSE,158,4.2,14.5,70,0.00,,,0.00,WUHU216HW,2013-04-10 15:25:00,
2013-04-10 11:30:00,75.3,64.9,29.82,ESE,113,0.0,6.7,70,0.00,,,0.00,WUHU216HW,2013-04-10 15:30:00,
2013-04-10 11:35:00,75.7,65.3,29.82,ESE,113,0.0,6.0,70,0.00,,,0.00,WUHU216HW,2013-04-10 15:35:00,
2013-04-10 11:40:00,75.9,65.4,29.82,SE,135,0.0,8.0,70,0.00,,,0.00,WUHU216HW,2013-04-10 15:40:00,
2013-04-10 11:45:00,76.6,66.2,29.82,SE,135,8.0,8.0,70,0.00,,,0.00,WUHU216HW,2013-04-10 15:45:00,
2013-04-10 11:50:00,77.0,66.1,29.82,SSW,203,2.9,8.0,69,0.00,,,0.00,WUHU216HW,2013-04-10 15:50:00,
2013-04-10 11:55:00,77.0,65.6,29.82,SW,225,0.0,6.9,68,0.00,,,0.00,WUHU216HW,2013-04-10 15:55:00,
2013-04-10 12:00:00,77.1,65.8,29.82,SSE,158,6.7,6.9,68,0.00,,,0.00,WUHU216HW,2013-04-10 16:00:00,
2013-04-10 12:05:00,77.3,65.9,29.82,ESE,113,0.6,7.6,68,0.00,,,0.00,WUHU216HW,2013-04-10 16:05:00,
2013-04-10 12:10:00,77.7,65.8,29.82,ENE,68,0.0,7.6,67,0.00,,,0.00,WUHU216HW,2013-04-10 16:10:00,
2013-04-10 12:15:00,77.7,65.4,29.83,SW,225,0.0,9.1,66,0.00,,,0.00,WUHU216HW,2013-04-10 16:15:00,
2013-04-10 12:20:00,77.9,65.6,29.83,SW,225,11.4,11.4,66,0.00,,,0.00,WUHU216HW,2013-04-10 16:20:00,
2013-04-10 12:25:00,77.9,65.6,29.83,West,270,4.4,11.4,66,0.00,,,0.00,WUHU216HW,2013-04-10 16:25:00,
2013-04-10 12:30:00,77.9,65.6,29.83,West,270,7.6,11.4,66,0.00,,,0.00,WUHU216HW,2013-04-10 16:30:00,
2013-04-10 12:35:00,78.0,65.7,29.83,SW,225,7.3,7.6,66,0.00,,,0.00,WUHU216HW,2013-04-10 16:35:00,
2013-04-10 12:40:00,78.4,66.1,29.83,NW,315,10.5,10.5,66,0.00,,,0.00,WUHU216HW,2013-04-10 16:40:00,
2013-04-10 12:45:00,78.8,66.0,29.83,SSW,203,16.5,16.5,65,0.00,,,0.00,WUHU216HW,2013-04-10 16:45:00,
2013-04-10 12:50:00,78.9,66.1,29.82,SE,135,4.9,16.5,65,0.00,,,0.00,WUHU216HW,2013-04-10 16:50:00,
2013-04-10 12:55:00,78.9,66.1,29.82,SSE,158,0.0,4.9,65,0.00,,,0.00,WUHU216HW,2013-04-10 16:55:00,
2013-04-10 13:00:00,79.1,66.3,29.81,ESE,113,0.0,4.9,65,0.00,,,0.00,WUHU216HW,2013-04-10 17:00:00,
2013-04-10 13:06:00,79.3,66.0,29.82,SW,225,7.1,7.1,64,0.00,,,0.00,WUHU216HW,2013-04-10 17:06:00,
2013-04-10 13:11:00,79.3,66.0,29.81,SSE,158,2.4,7.1,64,0.00,,,0.00,WUHU216HW,2013-04-10 17:11:00,
2013-04-10 13:16:00,79.3,66.0,29.81,SSE,158,6.4,7.1,64,0.00,,,0.00,WUHU216HW,2013-04-10 17:16:00,
2013-04-10 13:21:00,79.5,65.8,29.81,SSE,158,10.7,10.7,63,0.00,,,0.00,WUHU216HW,2013-04-10 17:21:00,
2013-04-10 13:26:00,79.5,65.8,29.81,NNW,338,4.9,10.7,63,0.00,,,0.00,WUHU216HW,2013-04-10 17:26:00,
2013-04-10 13:31:00,79.5,65.8,29.81,SE,135,1.3,10.7,63,0.00,,,0.00,WUHU216HW,2013-04-10 17:31:00,
2013-04-10 13:36:00,79.7,65.8,29.80,SSE,158,1.5,6.0,63,0.00,,,0.00,WUHU216HW,2013-04-10 17:36:00,
2013-04-10 13:41:00,79.8,65.7,29.80,West,270,5.5,12.3,62,0.00,,,0.00,WUHU216HW,2013-04-10 17:41:00,
2013-04-10 13:46:00,80.2,66.0,29.80,SE,135,8.5,12.3,62,0.00,,,0.00,WUHU216HW,2013-04-10 17:46:00,
2013-04-10 13:51:00,80.4,65.7,29.80,East,90,5.3,8.5,61,0.00,,,0.00,WUHU216HW,2013-04-10 17:51:00,
2013-04-10 13:56:00,80.4,65.7,29.80,ESE,113,0.0,5.3,61,0.00,,,0.00,WUHU216HW,2013-04-10 17:56:00,
2013-04-10 14:01:00,80.4,65.7,29.80,SE,135,10.5,10.5,61,0.00,,,0.00,WUHU216HW,2013-04-10 18:01:00,
2013-04-10 14:06:00,80.2,65.5,29.80,ENE,68,0.0,10.5,61,0.00,,,0.00,WUHU216HW,2013-04-10 18:06:00,
2013-04-10 14:11:00,80.4,65.7,29.80,SSE,158,8.5,8.5,61,0.00,,,0.00,WUHU216HW,2013-04-10 18:11:00,
2013-04-10 14:16:00,80.7,65.6,29.80,SE,135,12.0,12.0,60,0.00,,,0.00,WUHU216HW,2013-04-10 18:16:00,
2013-04-10 14:21:00,80.4,64.7,29.79,NW,315,5.5,12.0,59,0.00,,,0.00,WUHU216HW,2013-04-10 18:21:00,
2013-04-10 14:26:00,80.6,64.9,29.79,NW,315,1.7,11.1,59,0.00,,,0.00,WUHU216HW,2013-04-10 18:26:00,
2013-04-10 14:31:00,81.1,65.9,29.78,SSE,158,6.4,10.5,60,0.00,,,0.00,WUHU216HW,2013-04-10 18:31:00,
2013-04-10 14:36:00,81.5,65.2,29.78,WNW,293,2.0,6.4,58,0.00,,,0.00,WUHU216HW,2013-04-10 18:36:00,
2013-04-10 14:41:00,81.6,65.4,29.78,SSE,158,6.7,6.7,58,0.00,,,0.00,WUHU216HW,2013-04-10 18:41:00,
2013-04-10 14:46:00,81.6,65.4,29.78,SE,135,3.8,6.7,58,0.00,,,0.00,WUHU216HW,2013-04-10 18:46:00,
2013-04-10 14:51:00,81.6,64.8,29.78,ESE,113,4.4,6.7,57,0.00,,,0.00,WUHU216HW,2013-04-10 18:51:00,
2013-04-10 14:56:00,81.6,64.8,29.77,SE,135,10.5,10.5,57,0.00,,,0.00,WUHU216HW,2013-04-10 18:56:00,
2013-04-10 15:01:00,81.8,65.0,29.77,ESE,113,9.1,10.5,57,0.00,,,0.00,WUHU216HW,2013-04-10 19:01:00,
2013-04-10 15:06:00,82.2,65.3,29.77,SSE,158,8.7,9.8,57,0.00,,,0.00,WUHU216HW,2013-04-10 19:06:00,
2013-04-10 15:11:00,82.2,64.8,29.77,SSE,158,14.0,14.0,56,0.00,,,0.00,WUHU216HW,2013-04-10 19:11:00,
2013-04-10 15:17:00,82.5,65.1,29.76,SSW,203,0.0,14.0,56,0.00,,,0.00,WUHU216HW,2013-04-10 19:17:00,
2013-04-10 15:22:00,82.7,65.3,29.75,SSW,203,0.0,6.2,56,0.00,,,0.00,WUHU216HW,2013-04-10 19:22:00,
2013-04-10 15:27:00,82.9,65.0,29.75,SE,135,2.0,2.4,55,0.00,,,0.00,WUHU216HW,2013-04-10 19:27:00,
2013-04-10 15:32:00,83.1,65.2,29.76,NW,315,0.8,9.6,55,0.00,,,0.00,WUHU216HW,2013-04-10 19:32:00,
2013-04-10 15:37:00,82.9,65.0,29.76,SW,225,3.1,9.6,55,0.00,,,0.00,WUHU216HW,2013-04-10 19:37:00,
2013-04-10 15:42:00,82.7,64.8,29.75,SSE,158,6.4,8.2,55,0.00,,,0.00,WUHU216HW,2013-04-10 19:42:00,
2013-04-10 15:47:00,82.4,64.4,29.75,SSW,203,6.7,8.2,55,0.00,,,0.00,WUHU216HW,2013-04-10 19:47:00,
2013-04-10 15:52:00,82.2,64.3,29.75,WSW,248,6.2,6.7,55,0.00,,,0.00,WUHU216HW,2013-04-10 19:52:00,
2013-04-10 15:57:00,82.0,63.6,29.75,West,270,0.6,6.7,54,0.00,,,0.00,WUHU216HW,2013-04-10 19:57:00,
2013-04-10 16:02:00,81.3,62.9,29.75,SE,135,16.7,16.7,54,0.00,,,0.00,WUHU216HW,2013-04-10 20:02:00,
2013-04-10 16:07:00,81.1,63.3,29.75,South,180,5.1,16.7,55,0.00,,,0.00,WUHU216HW,2013-04-10 20:07:00,
2013-04-10 16:12:00,81.1,63.3,29.75,NNW,338,3.5,16.7,55,0.00,,,0.00,WUHU216HW,2013-04-10 20:12:00,
2013-04-10 16:17:00,80.9,63.7,29.75,NNE,23,2.0,6.0,56,0.00,,,0.00,WUHU216HW,2013-04-10 20:17:00,
2013-04-10 16:22:00,80.7,63.5,29.75,SW,225,6.7,6.7,56,0.00,,,0.00,WUHU216HW,2013-04-10 20:22:00,
2013-04-10 16:27:00,80.6,63.3,29.75,West,270,0.8,7.1,56,0.00,,,0.00,WUHU216HW,2013-04-10 20:27:00,
2013-04-10 16:32:00,80.4,63.2,29.73,West,270,1.1,7.1,56,0.00,,,0.00,WUHU216HW,2013-04-10 20:32:00,
2013-04-10 16:37:00,80.4,63.7,29.73,SE,135,0.0,5.8,57,0.00,,,0.00,WUHU216HW,2013-04-10 20:37:00,
2013-04-10 16:42:00,80.4,63.7,29.72,ESE,113,3.3,5.5,57,0.00,,,0.00,WUHU216HW,2013-04-10 20:42:00,
2013-04-10 16:47:00,80.2,63.5,29.72,SSE,158,0.0,5.5,57,0.00,,,0.00,WUHU216HW,2013-04-10 20:47:00,
2013-04-10 16:52:00,80.2,63.5,29.72,NW,315,0.4,9.1,57,0.00,,,0.00,WUHU216HW,2013-04-10 20:52:00,
2013-04-10 16:57:00,80.2,63.5,29.72,NNW,338,5.3,9.1,57,0.00,,,0.00,WUHU216HW,2013-04-10 20:57:00,
2013-04-10 17:02:00,80.2,63.5,29.72,SE,135,7.6,7.6,57,0.00,,,0.00,WUHU216HW,2013-04-10 21:02:00,
2013-04-10 17:07:00,80.2,63.5,29.71,SSE,158,0.0,7.6,57,0.00,,,0.00,WUHU216HW,2013-04-10 21:07:00,
2013-04-10 17:12:00,80.4,63.7,29.71,SW,225,0.0,6.2,57,0.00,,,0.00,WUHU216HW,2013-04-10 21:12:00,
2013-04-10 17:17:00,80.7,64.0,29.71,SSE,158,6.7,6.7,57,0.00,,,0.00,WUHU216HW,2013-04-10 21:17:00,
2013-04-10 17:22:00,81.3,64.4,29.72,SE,135,14.7,14.7,57,0.00,,,0.00,WUHU216HW,2013-04-10 21:22:00,
2013-04-10 17:27:00,81.3,64.0,29.71,East,90,0.0,14.7,56,0.00,,,0.00,WUHU216HW,2013-04-10 21:27:00,
2013-04-10 17:32:00,81.3,64.0,29.71,SW,225,0.0,14.7,56,0.00,,,0.00,WUHU216HW,2013-04-10 21:32:00,
2013-04-10 17:37:00,81.3,64.0,29.70,SE,135,0.0,11.6,56,0.00,,,0.00,WUHU216HW,2013-04-10 21:37:00,
2013-04-10 17:42:00,81.3,64.0,29.71,SSE,158,1.3,4.2,56,0.00,,,0.00,WUHU216HW,2013-04-10 21:42:00,
2013-04-10 17:47:00,81.1,63.8,29.71,SSW,203,0.0,6.4,56,0.00,,,0.00,WUHU216HW,2013-04-10 21:47:00,
2013-04-10 17:52:00,81.1,63.8,29.70,SSE,158,0.0,7.3,56,0.00,,,0.00,WUHU216HW,2013-04-10 21:52:00,
2013-04-10 17:57:00,81.1,63.8,29.70,ESE,113,3.1,7.3,56,0.00,,,0.00,WUHU216HW,2013-04-10 21:57:00,
2013-04-10 18:02:00,81.3,64.0,29.70,West,270,3.1,4.9,56,0.00,,,0.00,WUHU216HW,2013-04-10 22:02:00,
2013-04-10 18:07:00,81.5,64.2,29.70,SSE,158,9.6,9.6,56,0.00,,,0.00,WUHU216HW,2013-04-10 22:07:00,
2013-04-10 18:12:00,81.5,63.6,29.70,South,180,7.6,9.6,55,0.00,,,0.00,WUHU216HW,2013-04-10 22:12:00,
2013-04-10 18:17:00,81.6,63.8,29.70,SSE,158,5.8,9.6,55,0.00,,,0.00,WUHU216HW,2013-04-10 22:17:00,
2013-04-10 18:22:00,81.5,63.6,29.69,SW,225,0.0,7.6,55,0.00,,,0.00,WUHU216HW,2013-04-10 22:22:00,
2013-04-10 18:27:00,81.3,63.5,29.69,SE,135,7.8,7.8,55,0.00,,,0.00,WUHU216HW,2013-04-10 22:27:00,
2013-04-10 18:32:00,81.1,63.3,29.69,NW,315,0.0,7.8,55,0.00,,,0.00,WUHU216HW,2013-04-10 22:32:00,
2013-04-10 18:37:00,80.9,63.1,29.69,SE,135,11.8,11.8,55,0.00,,,0.00,WUHU216HW,2013-04-10 22:37:00,
2013-04-10 18:42:00,80.9,63.1,29.69,SSE,158,2.0,11.8,55,0.00,,,0.00,WUHU216HW,2013-04-10 22:42:00,
2013-04-10 18:47:00,80.9,63.1,29.69,East,90,0.0,11.8,55,0.00,,,0.00,WUHU216HW,2013-04-10 22:47:00,
2013-04-10 18:52:00,80.7,63.5,29.69,SSE,158,3.1,3.1,56,0.00,,,0.00,WUHU216HW,2013-04-10 22:52:00,
2013-04-10 18:57:00,80.7,63.5,29.69,SSE,158,0.0,3.1,56,0.00,,,0.00,WUHU216HW,2013-04-10 22:57:00,
2013-04-10 19:02:00,80.6,63.3,29.68,SE,135,4.2,6.4,56,0.00,,,0.00,WUHU216HW,2013-04-10 23:02:00,
2013-04-10 19:07:00,80.4,63.2,29.68,SSE,158,6.0,6.4,56,0.00,,,0.00,WUHU216HW,2013-04-10 23:07:00,
2013-04-10 19:12:00,80.4,63.2,29.67,SSE,158,0.0,6.0,56,0.00,,,0.00,WUHU216HW,2013-04-10 23:12:00,
2013-04-10 19:17:00,80.4,63.2,29.68,SE,135,0.0,6.0,56,0.00,,,0.00,WUHU216HW,2013-04-10 23:17:00,
2013-04-10 19:22:00,80.2,63.0,29.68,SSE,158,0.0,6.0,56,0.00,,,0.00,WUHU216HW,2013-04-10 23:22:00,
2013-04-10 19:27:00,79.8,62.7,29.68,SE,135,0.0,5.3,56,0.00,,,0.00,WUHU216HW,2013-04-10 23:27:00,
2013-04-10 19:32:00,79.7,62.5,29.68,NE,45,0.0,0.0,56,0.00,,,0.00,WUHU216HW,2013-04-10 23:32:00,
2013-04-10 19:38:00,79.7,62.5,29.68,SE,135,6.9,6.9,56,0.00,,,0.00,WUHU216HW,2013-04-10 23:38:00,
2013-04-10 19:43:00,79.5,62.4,29.68,South,180,3.3,6.9,56,0.00,,,0.00,WUHU216HW,2013-04-10 23:43:00,
2013-04-10 19:48:00,79.5,62.4,29.67,SSE,158,2.9,6.9,56,0.00,,,0.00,WUHU216HW,2013-04-10 23:48:00,
2013-04-10 19:53:00,79.1,62.0,29.67,SE,135,3.3,5.8,56,0.00,,,0.00,WUHU216HW,2013-04-10 23:53:00,
2013-04-10 19:58:00,79.1,62.0,29.67,SW,225,0.0,5.8,56,0.00,,,0.00,WUHU216HW,2013-04-10 23:58:00,
2013-04-10 20:03:00,78.9,62.4,29.67,West,270,0.0,3.3,57,0.00,,,0.00,WUHU216HW,2013-04-11 00:03:00,
2013-04-10 20:08:00,78.6,62.1,29.67,ESE,113,0.0,0.0,57,0.00,,,0.00,WUHU216HW,2013-04-11 00:08:00,
2013-04-10 20:13:00,78.6,62.1,29.66,SE,135,0.0,0.0,57,0.00,,,0.00,WUHU216HW,2013-04-11 00:13:00,
2013-04-10 20:18:00,78.6,62.1,29.66,SE,135,0.0,0.0,57,0.00,,,0.00,WUHU216HW,2013-04-11 00:18:00,
2013-04-10 20:23:00,78.4,61.9,29.66,SE,135,0.0,0.6,57,0.00,,,0.00,WUHU216HW,2013-04-11 00:23:00,
2013-04-10 20:28:00,78.2,61.7,29.66,SE,135,0.0,0.6,57,0.00,,,0.00,WUHU216HW,2013-04-11 00:28:00,
2013-04-10 20:33:00,78.0,62.0,29.66,SSE,158,0.0,0.0,58,0.00,,,0.00,WUHU216HW,2013-04-11 00:33:00,
2013-04-10 20:38:00,77.9,61.9,29.66,SE,135,0.0,0.0,58,0.00,,,0.00,WUHU216HW,2013-04-11 00:38:00,
2013-04-10 20:43:00,77.5,61.5,29.67,ESE,113,0.0,0.0,58,0.00,,,0.00,WUHU216HW,2013-04-11 00:43:00,
2013-04-10 20:48:00,77.3,61.8,29.67,ESE,113,0.0,0.0,59,0.00,,,0.00,WUHU216HW,2013-04-11 00:48:00,
2013-04-10 20:53:00,77.0,61.5,29.67,ENE,68,0.0,0.0,59,0.00,,,0.00,WUHU216HW,2013-04-11 00:53:00,
2013-04-10 20:58:00,76.8,61.3,29.67,ENE,68,0.0,0.0,59,0.00,,,0.00,WUHU216HW,2013-04-11 00:58:00,
2013-04-10 21:03:00,76.8,61.3,29.66,East,90,0.0,0.0,59,0.00,,,0.00,WUHU216HW,2013-04-11 01:03:00,
2013-04-10 21:08:00,76.6,61.7,29.65,ENE,68,0.0,0.0,60,0.00,,,0.00,WUHU216HW,2013-04-11 01:08:00,
2013-04-10 21:13:00,76.2,60.9,29.65,ENE,68,0.0,0.0,59,0.00,,,0.00,WUHU216HW,2013-04-11 01:13:00,
2013-04-10 21:18:00,76.1,61.2,29.65,ENE,68,0.0,0.0,60,0.00,,,0.00,WUHU216HW,2013-04-11 01:18:00,
2013-04-10 21:23:00,75.7,60.9,29.65,ENE,68,0.0,0.0,60,0.00,,,0.00,WUHU216HW,2013-04-11 01:23:00,
2013-04-10 21:28:00,75.3,61.0,29.65,ENE,68,0.0,0.0,61,0.00,,,0.00,WUHU216HW,2013-04-11 01:28:00,
2013-04-10 21:33:00,75.0,60.6,29.65,ENE,68,0.0,0.0,61,0.00,,,0.00,WUHU216HW,2013-04-11 01:33:00,
2013-04-10 21:38:00,74.8,60.5,29.65,ENE,68,0.0,0.0,61,0.00,,,0.00,WUHU216HW,2013-04-11 01:38:00,
2013-04-10 21:43:00,74.4,60.5,29.65,ENE,68,0.0,0.0,62,0.00,,,0.00,WUHU216HW,2013-04-11 01:43:00,
2013-04-10 21:48:00,74.1,60.2,29.64,ENE,68,0.0,0.0,62,0.00,,,0.00,WUHU216HW,2013-04-11 01:48:00,
2013-04-10 21:53:00,73.5,60.1,29.64,ENE,68,0.0,0.0,63,0.00,,,0.00,WUHU216HW,2013-04-11 01:53:00,
2013-04-10 21:58:00,73.2,59.8,29.64,ENE,68,0.0,0.0,63,0.00,,,0.00,WUHU216HW,2013-04-11 01:58:00,
2013-04-10 22:03:00,73.0,60.0,29.65,ENE,68,0.0,0.0,64,0.00,,,0.00,WUHU216HW,2013-04-11 02:03:00,
2013-04-10 22:08:00,72.6,59.7,29.65,ENE,68,0.0,0.0,64,0.00,,,0.00,WUHU216HW,2013-04-11 02:08:00,
2013-04-10 22:13:00,72.3,59.4,29.66,NNW,338,0.0,0.0,64,0.00,,,0.00,WUHU216HW,2013-04-11 02:13:00,
2013-04-10 22:18:00,72.1,59.6,29.66,NNW,338,0.0,0.0,65,0.00,,,0.00,WUHU216HW,2013-04-11 02:18:00,
2013-04-10 22:23:00,71.7,59.3,29.65,NNW,338,0.0,0.0,65,0.00,,,0.00,WUHU216HW,2013-04-11 02:23:00,
2013-04-10 22:28:00,71.6,59.6,29.66,NNW,338,0.0,0.0,66,0.00,,,0.00,WUHU216HW,2013-04-11 02:28:00,
2013-04-10 22:33:00,71.4,59.4,29.66,NNW,338,0.0,0.0,66,0.00,,,0.00,WUHU216HW,2013-04-11 02:33:00,
2013-04-10 22:38:00,71.2,59.2,29.66,NNW,338,0.0,0.0,66,0.00,,,0.00,WUHU216HW,2013-04-11 02:38:00,
2013-04-10 22:43:00,70.8,59.3,29.66,NNW,338,0.0,0.0,67,0.00,,,0.00,WUHU216HW,2013-04-11 02:43:00,
2013-04-10 22:48:00,70.7,59.1,29.66,NNW,338,0.0,0.0,67,0.00,,,0.00,WUHU216HW,2013-04-11 02:48:00,
2013-04-10 22:53:00,70.3,58.8,29.66,NNW,338,0.0,0.0,67,0.00,,,0.00,WUHU216HW,2013-04-11 02:53:00,
2013-04-10 22:58:00,70.1,58.6,29.66,NNW,338,0.0,0.0,67,0.00,,,0.00,WUHU216HW,2013-04-11 02:58:00,
2013-04-10 23:03:00,69.9,58.8,29.66,NNW,338,0.0,0.0,68,0.00,,,0.00,WUHU216HW,2013-04-11 03:03:00,
2013-04-10 23:08:00,69.6,58.5,29.66,NNW,338,0.0,0.0,68,0.00,,,0.00,WUHU216HW,2013-04-11 03:08:00,
2013-04-10 23:13:00,69.4,58.2,29.66,NNW,338,0.0,0.0,68,0.00,,,0.00,WUHU216HW,2013-04-11 03:13:00,
2013-04-10 23:18:00,69.0,58.4,29.65,NNW,338,0.0,0.0,69,0.00,,,0.00,WUHU216HW,2013-04-11 03:18:00,
2013-04-10 23:23:00,68.7,58.1,29.66,North,0,0.0,0.0,69,0.00,,,0.00,WUHU216HW,2013-04-11 03:23:00,
2013-04-10 23:28:00,68.5,58.4,29.66,North,0,0.0,0.0,70,0.00,,,0.00,WUHU216HW,2013-04-11 03:28:00,
2013-04-10 23:33:00,68.3,58.2,29.65,ESE,113,0.0,0.0,70,0.00,,,0.00,WUHU216HW,2013-04-11 03:33:00,
2013-04-10 23:38:00,68.3,58.2,29.65,ESE,113,0.0,0.0,70,0.00,,,0.00,WUHU216HW,2013-04-11 03:38:00,
2013-04-10 23:43:00,68.1,58.0,29.66,ENE,68,0.0,0.0,70,0.00,,,0.00,WUHU216HW,2013-04-11 03:43:00,
2013-04-10 23:48:00,68.1,58.4,29.65,SE,135,0.0,0.0,71,0.00,,,0.00,WUHU216HW,2013-04-11 03:48:00,
2013-04-10 23:53:00,68.5,58.7,29.65,SE,135,0.0,0.0,71,0.00,,,0.00,WUHU216HW,2013-04-11 03:53:00,
2013-04-10 23:58:00,68.9,58.7,29.65,SE,135,0.0,2.9,70,0.00,,,0.00,WUHU216HW,2013-04-11 03:58:00,